Regional Weather Roundup
Issued by NWS Green Bay, WI

Home | Current Version | Previous Version | Graphics & Text | Print | Product List | Glossary Off
Versions: 1 2 3 4 5 6 7 8 9 10 11 12 13 14 15 16 17 18 19 20 21 22 23 24 25 26 27 28 29 30 31 32 33 34 35 36 37 38 39 40 41 42 43 44 45 46 47 48 49 50

272
ASUS43 KGRB 170711
RWRGRB

NORTH-CENTRAL AND NORTHEAST WISCONSIN REGIONAL WEATHER ROUNDUP
NATIONAL WEATHER SERVICE GREEN BAY WI
100 AM CST TUE JAN 17 2017

WIZ005-009-010>012-018-019-170800-
NORTH CENTRAL WISCONSIN

CITY           SKY/WX    TMP DP  RH WIND       PRES   REMARKS
IRONWOOD       CLOUDY    23  19  85 CALM      29.99F
MANITOWISH WTR CLOUDY    24  23  97 CALM      29.95F
ARBOR VITAE    CLOUDY    27  23  85 CALM      29.94F
EAGLE RIVER    CLOUDY    23  21  93 CALM      29.94F
LAND O LAKES   CLOUDY    20  18  92 CALM      29.97F FOG
RHINELANDER    LGT SNOW  30  23  75 E3        29.95S
PHILLIPS       MIX PCPN  29  24  80 CALM      29.94F
ANTIGO         LGT SNOW  31  31  99 E7        29.93S
TOMAHAWK       LGT SNOW  29  26  89 NE3       29.94F
MERRILL        LGT SNOW  31  31 100 E3          N/A
$$

WIZ013-073-170800-
NORTHEAST WISCONSIN

CITY           SKY/WX    TMP DP  RH WIND       PRES   REMARKS
IRON MOUNTAIN  CLOUDY    22  17  81 N3        29.97F
MARINETTE      NOT AVBL
OCONTO         CLOUDY    32  30  93 NE6       29.95F
$$

WIZ017-030-035>037-045-170800-
CENTRAL WISCONSIN

CITY           SKY/WX    TMP DP  RH WIND       PRES   REMARKS
MEDFORD        MIX PCPN  31  30  96 NE7       29.90F
WAUSAU         MIX PCPN  32  31  96 NE7       29.90F FOG
MOSINEE        MIX PCPN  32  32 100 NE6       29.90F
MARSHFIELD     LGT RAIN  33  31  92 E13       29.87F FOG
WISC RAPIDS    LGT RAIN  33  33 100 E9        29.89F
STEVENS POINT  CLOUDY    31  31 100 NE7       29.89F
WAUPACA        LGT RAIN  34  33  93 CALM      29.90F
SHAWANO        DRIZZLE   33  31  94 NE7       29.95F
CLINTONVILLE   MIX PCPN  32  32 100 NE7       29.92F
WAUTOMA        MIX PCPN N/A N/A N/A NE7       29.88F
$$

WIZ038-039-048-051-170800-
FOX VALLEY

CITY           SKY/WX    TMP DP  RH WIND       PRES   REMARKS
NWS GREEN BAY  CLOUDY    34  34 100 NE13      29.92F FOG
APPLETON       DRIZZLE   32  32 100 NE7       29.88F
OSHKOSH        MIX PCPN  34  32  92 NE9       29.87F FOG
FOND DU LAC    CLOUDY    35  32  88 E6        29.87F
$$

WIZ022-050-052-170800-
EAST CENTRAL WISCONSIN

CITY           SKY/WX    TMP DP  RH WIND       PRES   REMARKS
EPHRAIM        LGT RAIN  32  32  99 NE6       29.96F
WASHINGTON ISL LGT SNOW  31  29  92 NE5       29.99F
STURGEON BAY   MIX PCPN  33  32  96 NE9       29.95F FOG
MANITOWOC      MIX PCPN  36  35  96 NE5       29.92F
SHEBOYGAN      LGT RAIN  34  33  96 E8        29.88F FOG
$$

LMZ563-521-522-541>543-170800-
LAKESHORE

STATION/POSITION TIME  TEMP    WIND        PRES    VSBY  WAVE
                       AIR SEA DIR/SP/G                  HT/PER
                 (UTC) (F)     (DEG/KT/KT) (MB)    (MI)  (FT/S)
SHEBOYGAN LKSHOR 0700   36     100/ 12/ 13 1012.1F
KEWAUNEE LKSHORE 0648           70/  7/  9 1013.5F
NORTHPORT PIER   0640   32        CALM     1015.9F
SISTER BAY LKSHO 0635   33     100/  3/  5   N/A
MENOMINEE LKSHOR 0648           10/ 17/ 19 1014.2F
$$




USA.gov is the U.S. government's official web portal to all federal, state and local government web resources and services.